Retour au catalogue

COSMOS 985 DEB

ActifPO
NORAD 23836·DEBRIS·🇷🇺 Russia

Lancé Jan 17, 1978 depuis Plesetsk Cosmodrome

Loading…

Prochains Passages (prochaines 24 heures)

TLE

FraisSource: Space-Track

Époque: Sep 14, 2026, 09:18 UTC

1 23836U 78007D   26257.38780813  .00000934  00000-0  56998-3 0  9990
2 23836  82.9300  46.8668 0038456  24.6169   4.1620 14.04701084653756

Suivez COSMOS 985 DEB en temps réel avec AllMySat

Download on the App Store